Location: ?????
(55.8833°N, 37.6500°E)
Time: 09:40:52
(UTC+00:00)

NOSS 3-1 (C) - Pass Details

Date: 27 February 2020
Orbit: 759 x 1449 km, 63.4° (Epoch: 26 March)

Event Time Altitude Azimuth Distance (km) Brightness Sun altitude
Rises 18:20:59 0° 277° (W) 3,532 7.4 -28.3°
Reaches altitude 10° 18:23:28 10° 283° (WNW) 2,677 6.7 -28.6°
Maximum altitude 18:29:31 46° 357° (N) 1,405 4.4 -29.4°
Enters shadow 18:32:13 33° 46° (NE) 1,801 4.7 -29.7°
